When you browse on this site, cookies collect data to enhance your experience and personalize the content and advertising you see.
Visit our Privacy Policy to learn more. By continuing to use the site, you agree to this use of cookies and data.
  • In Austria
  • List of Countries
  • For 7 days
  • Water Temperature
  • Weather Map
  • News
  • Weather Widgets
  • user-avatar
    Login

    Hourly Weather Tepepa

    Today, 17 August, Saturday

    Time Temperature Precipitation Wind Pressure Humidity
    00:00 +14°C° 0 mm 1 mps 585 mmHg 85%
    01:00 +14°C° 0 mm 1 mps 585 mmHg 84%
    02:00 +14°C° 0 mm 1 mps 584 mmHg 82%
    03:00 +13°C° 0 mm 1 mps 584 mmHg 82%
    04:00 +13°C° 0 mm 1 mps 584 mmHg 82%
    05:00 +13°C° 0 mm 1 mps 584 mmHg 82%
    06:00 +16°C° 0 mm 1 mps 586 mmHg 74%
    07:00 +19°C° 0 mm 1 mps 587 mmHg 67%
    08:00 +19°C° 0 mm 0 mps 588 mmHg 60%
    09:00 +22°C° 0 mm 1 mps 588 mmHg 57%
    10:00 +23°C° 0 mm 2 mps 589 mmHg 55%
    11:00 +25°C° 0 mm 3 mps 589 mmHg 52%
    12:00 +24°C° 0.2 mm 3 mps 588 mmHg 57%
    13:00 +24°C° 0.2 mm 3 mps 587 mmHg 62%
    14:00 +22°C° 0.2 mm 4 mps 586 mmHg 67%
    15:00 +21°C° 0.1 mm 3 mps 586 mmHg 71%
    16:00 +20°C° 0.1 mm 3 mps 585 mmHg 75%
    17:00 +19°C° 0.1 mm 2 mps 585 mmHg 79%
    18:00 +17°C° 0 mm 2 mps 584 mmHg 84%
    19:00 +16°C° 0 mm 1 mps 584 mmHg 89%
    20:00 +14°C° 0 mm 1 mps 584 mmHg 94%
    21:00 +14°C° 0 mm 1 mps 584 mmHg 89%
    22:00 +14°C° 0 mm 1 mps 584 mmHg 85%
    23:00 +13°C° 0 mm 1 mps 584 mmHg 80%

    Tomorrow, 18 August, Sunday

    Time Temperature Precipitation Wind Pressure Humidity
    00:00 +13°C° 0 mm 1 mps 584 mmHg 79%
    01:00 +13°C° 0 mm 1 mps 584 mmHg 77%
    02:00 +13°C° 0 mm 1 mps 583 mmHg 76%
    03:00 +13°C° 0 mm 1 mps 583 mmHg 77%
    04:00 +13°C° 0 mm 1 mps 583 mmHg 77%
    05:00 +13°C° 0 mm 1 mps 583 mmHg 78%
    06:00 +15°C° 0 mm 1 mps 585 mmHg 72%
    07:00 +18°C° 0 mm 1 mps 586 mmHg 66%
    08:00 +19°C° 0 mm 0 mps 587 mmHg 60%
    09:00 +22°C° 0 mm 1 mps 588 mmHg 57%
    10:00 +23°C° 0 mm 2 mps 588 mmHg 54%
    11:00 +24°C° 0 mm 3 mps 588 mmHg 51%
    12:00 +24°C° 0 mm 3 mps 587 mmHg 56%
    13:00 +22°C° 0 mm 4 mps 587 mmHg 60%
    14:00 +22°C° 0 mm 4 mps 586 mmHg 64%
    15:00 +21°C° 0.1 mm 3 mps 585 mmHg 71%
    16:00 +19°C° 0.1 mm 3 mps 585 mmHg 77%
    17:00 +18°C° 0.1 mm 2 mps 584 mmHg 84%
    18:00 +17°C° 0.1 mm 2 mps 584 mmHg 88%
    19:00 +16°C° 0.1 mm 1 mps 584 mmHg 92%
    20:00 +15°C° 0.1 mm 1 mps 585 mmHg 96%
    21:00 +15°C° 0.1 mm 1 mps 585 mmHg 96%
    22:00 +14°C° 0.1 mm 1 mps 585 mmHg 95%
    23:00 +14°C° 0.1 mm 1 mps 585 mmHg 95%

    Day after tomorrow, 19 August, Monday

    Time Temperature Precipitation Wind Pressure Humidity
    00:00 +13°C° 0 mm 0 mps 584 mmHg 95%
    01:00 +13°C° 0 mm 0 mps 584 mmHg 95%
    02:00 +12°C° 0 mm 0 mps 583 mmHg 95%
    03:00 +12°C° 0 mm 0 mps 584 mmHg 95%
    04:00 +13°C° 0 mm 1 mps 584 mmHg 95%
    05:00 +13°C° 0 mm 1 mps 584 mmHg 95%
    06:00 +15°C° 0 mm 1 mps 585 mmHg 89%
    07:00 +16°C° 0 mm 1 mps 586 mmHg 83%
    08:00 +19°C° 0 mm 1 mps 587 mmHg 77%
    09:00 +19°C° 0.2 mm 2 mps 587 mmHg 74%
    10:00 +20°C° 0.2 mm 3 mps 587 mmHg 72%
    11:00 +21°C° 0.2 mm 4 mps 587 mmHg 70%
    12:00 +20°C° 0.8 mm 3 mps 586 mmHg 74%
    13:00 +19°C° 0.8 mm 3 mps 585 mmHg 79%
    14:00 +18°C° 0.8 mm 3 mps 584 mmHg 84%
    15:00 +18°C° 0.5 mm 3 mps 584 mmHg 87%
    16:00 +17°C° 0.5 mm 3 mps 584 mmHg 90%
    17:00 +16°C° 0.5 mm 2 mps 584 mmHg 93%
    18:00 +15°C° 0.2 mm 2 mps 584 mmHg 94%
    19:00 +15°C° 0.2 mm 2 mps 585 mmHg 96%
    20:00 +14°C° 0.2 mm 1 mps 585 mmHg 97%
    21:00 +13°C° 0 mm 1 mps 585 mmHg 97%
    22:00 +13°C° 0 mm 1 mps 585 mmHg 97%
    23:00 +12°C° 0 mm 1 mps 585 mmHg 96%

    20 August, Tuesday

    Time Temperature Precipitation Wind Pressure Humidity
    00:00 +11°C° 0 mm 1 mps 584 mmHg 94%
    01:00 +11°C° 0 mm 1 mps 583 mmHg 92%
    02:00 +10°C° 0 mm 1 mps 583 mmHg 90%
    03:00 +10°C° 0 mm 1 mps 583 mmHg 90%
    04:00 +10°C° 0 mm 1 mps 583 mmHg 89%
    05:00 +9°C° 0 mm 1 mps 583 mmHg 89%
    06:00 +12°C° 0 mm 1 mps 584 mmHg 83%
    07:00 +14°C° 0 mm 1 mps 586 mmHg 77%
    08:00 +16°C° 0 mm 1 mps 587 mmHg 71%
    09:00 +18°C° 0 mm 2 mps 587 mmHg 67%
    10:00 +19°C° 0 mm 3 mps 588 mmHg 63%
    11:00 +20°C° 0 mm 4 mps 588 mmHg 58%
    12:00 +20°C° 0.2 mm 4 mps 587 mmHg 65%
    13:00 +19°C° 0.2 mm 4 mps 586 mmHg 71%
    14:00 +18°C° 0.2 mm 4 mps 586 mmHg 78%
    15:00 +17°C° 0.3 mm 3 mps 585 mmHg 82%
    16:00 +16°C° 0.3 mm 3 mps 585 mmHg 86%
    17:00 +15°C° 0.3 mm 2 mps 585 mmHg 91%
    18:00 +15°C° 0.3 mm 2 mps 585 mmHg 93%
    19:00 +14°C° 0.3 mm 1 mps 586 mmHg 95%
    20:00 +13°C° 0.3 mm 1 mps 586 mmHg 97%
    21:00 +13°C° 0.1 mm 1 mps 586 mmHg 97%
    22:00 +13°C° 0.1 mm 1 mps 586 mmHg 96%
    23:00 +13°C° 0.1 mm 1 mps 586 mmHg 95%

    21 August, Wednesday

    Time Temperature Precipitation Wind Pressure Humidity
    00:00 +13°C° 0 mm 1 mps 586 mmHg 95%
    01:00 +12°C° 0 mm 1 mps 585 mmHg 95%
    02:00 +12°C° 0 mm 1 mps 585 mmHg 94%
    03:00 +12°C° 0 mm 1 mps 585 mmHg 94%
    04:00 +11°C° 0 mm 1 mps 584 mmHg 95%
    05:00 +11°C° 0 mm 1 mps 584 mmHg 95%
    06:00 +13°C° 0 mm 1 mps 585 mmHg 88%
    07:00 +15°C° 0 mm 1 mps 587 mmHg 82%
    08:00 +18°C° 0 mm 1 mps 588 mmHg 75%
    09:00 +18°C° 0.1 mm 1 mps 587 mmHg 74%
    10:00 +18°C° 0.1 mm 2 mps 587 mmHg 72%
    11:00 +19°C° 0.1 mm 3 mps 587 mmHg 70%
    12:00 +18°C° 0.9 mm 3 mps 587 mmHg 76%
    13:00 +17°C° 0.9 mm 3 mps 586 mmHg 82%
    14:00 +17°C° 0.9 mm 3 mps 585 mmHg 88%
    15:00 +16°C° 0.6 mm 2 mps 585 mmHg 90%
    16:00 +16°C° 0.6 mm 2 mps 585 mmHg 93%
    17:00 +15°C° 0.6 mm 1 mps 585 mmHg 95%
    18:00 +14°C° 1.5 mm 1 mps 585 mmHg 96%
    19:00 +14°C° 1.5 mm 1 mps 585 mmHg 96%
    20:00 +13°C° 1.5 mm 0 mps 586 mmHg 97%
    21:00 +13°C° 3.4 mm 0 mps 586 mmHg 97%
    22:00 +13°C° 3.4 mm 0 mps 586 mmHg 97%
    23:00 +13°C° 3.4 mm 0 mps 586 mmHg 97%

    22 August, Thursday

    Time Temperature Precipitation Wind Pressure Humidity
    00:00 +12°C° 0.1 mm 0 mps 585 mmHg 96%
    01:00 +13°C° 0.1 mm 1 mps 585 mmHg 95%
    02:00 +13°C° 0.1 mm 1 mps 585 mmHg 93%
    03:00 +13°C° 0 mm 1 mps 585 mmHg 93%
    04:00 +13°C° 0 mm 1 mps 585 mmHg 93%
    05:00 +12°C° 0 mm 0 mps 585 mmHg 93%
    06:00 +14°C° 0 mm 0 mps 586 mmHg 87%
    07:00 +15°C° 0 mm 0 mps 587 mmHg 80%
    08:00 +17°C° 0 mm 0 mps 588 mmHg 74%
    09:00 +20°C° 0.4 mm 1 mps 588 mmHg 74%
    10:00 +19°C° 0.4 mm 2 mps 588 mmHg 74%
    11:00 +20°C° 0.4 mm 2 mps 588 mmHg 73%
    12:00 +19°C° 1.7 mm 2 mps 587 mmHg 79%
    13:00 +18°C° 1.7 mm 2 mps 586 mmHg 84%
    14:00 +18°C° 1.7 mm 2 mps 585 mmHg 89%
    15:00 +17°C° 0.9 mm 2 mps 585 mmHg 90%
    16:00 +17°C° 0.9 mm 2 mps 585 mmHg 91%
    17:00 +16°C° 0.9 mm 2 mps 585 mmHg 93%
    18:00 +15°C° 0.5 mm 1 mps 585 mmHg 93%
    19:00 +15°C° 0.5 mm 1 mps 585 mmHg 94%
    20:00 +14°C° 0.5 mm 1 mps 585 mmHg 95%
    21:00 +14°C° 0.6 mm 1 mps 585 mmHg 94%
    22:00 +14°C° 0.6 mm 1 mps 585 mmHg 93%
    23:00 +14°C° 0.6 mm 1 mps 585 mmHg 93%
    Show more